"Period start","avg(HW err(1)/warn(2) (#))","avg(Visibility (m))","avg(Weather code (#))","avg(Precip intensity (mm/h))","min(HW err(1)/warn(2) (#))","max(HW err(1)/warn(2) (#))","std(HW err(1)/warn(2) (#))","med(HW err(1)/warn(2) (#))","min(Visibility (m))","max(Visibility (m))","std(Visibility (m))","med(Visibility (m))","min(Weather code (#))","max(Weather code (#))","std(Weather code (#))","med(Weather code (#))","min(Precip intensity (mm/h))","max(Precip intensity (mm/h))","std(Precip intensity (mm/h))","med(Precip intensity (mm/h))"
2016-08-22 00:00:00,0,6809,13,0.00,0,0,0,0,5292,8227,948,6844,10,41,9,10,0.00,0.00,0.00,0.00
2016-08-22 00:10:00,0,25968,10,0.00,0,0,0,0,7609,50000,16272,24280,10,10,0,10,0.00,0.00,0.00,0.00
2016-08-22 00:20:00,0,16818,0,0.00,0,0,0,0,10687,25578,5220,15300,0,0,0,0,0.00,0.00,0.00,0.00
2016-08-22 00:30:00,0,25348,0,0.00,0,0,0,0,13673,44340,10098,22389,0,0,0,0,0.00,0.00,0.00,0.00
2016-08-22 00:40:00,0,27603,0,0.00,0,0,0,0,11759,46974,11829,28866,0,0,0,0,0.00,0.00,0.00,0.00
2016-08-22 00:50:00,0,16210,0,0.00,0,0,0,0,6962,32692,7634,14380,0,0,0,0,0.00,0.00,0.00,0.00
2016-08-22 01:00:00,0,9844,2,0.00,0,0,0,0,4945,19658,4041,9626,0,10,4,0,0.00,0.00,0.00,0.00
2016-08-22 01:10:00,0,13487,10,0.00,0,0,0,0,7035,25338,5375,11808,10,10,0,10,0.00,0.00,0.00,0.00
2016-08-22 01:20:00,0,36196,1,0.00,0,2,1,0,27026,44366,5646,35500,0,10,3,0,0.00,0.00,0.00,0.00
2016-08-22 01:30:00,0,17110,0,0.00,0,2,1,0,9388,35971,7198,16685,0,0,0,0,0.00,0.00,0.00,0.00
2016-08-22 01:40:00,0,9082,3,0.00,0,0,0,0,7439,10711,956,9036,0,10,5,0,0.00,0.00,0.00,0.00
2016-08-22 01:50:00,0,23056,5,0.00,0,0,0,0,15253,41401,8112,18924,0,10,5,5,0.00,0.00,0.00,0.00
2016-08-22 02:00:00,0,43256,0,0.00,0,0,0,0,20440,50000,9080,47075,0,0,0,0,0.00,0.00,0.00,0.00
2016-08-22 02:10:00,0,48015,0,0.00,0,0,0,0,39330,50000,3215,49673,0,0,0,0,0.00,0.00,0.00,0.00
2016-08-22 02:20:00,0,48379,0,0.00,0,0,0,0,44639,50000,2117,49544,0,0,0,0,0.00,0.00,0.00,0.00
2016-08-22 02:30:00,0,49443,0,0.00,0,0,0,0,45459,50000,1363,50000,0,0,0,0,0.00,0.00,0.00,0.00
2016-08-22 02:40:00,0,49182,0,0.00,0,0,0,0,46631,50000,1085,49718,0,0,0,0,0.00,0.00,0.00,0.00
2016-08-22 02:50:00,0,48317,0,0.00,0,0,0,0,43900,50000,2179,49359,0,0,0,0,0.00,0.00,0.00,0.00
2016-08-22 03:00:00,1,47895,0,0.00,0,2,1,0,40412,50000,3129,49360,0,0,0,0,0.00,0.00,0.00,0.00
2016-08-22 03:10:00,0,49086,0,0.00,0,0,0,0,45237,50000,1438,49968,0,0,0,0,0.00,0.00,0.00,0.00
2016-08-22 03:20:00,0,45080,0,0.00,0,0,0,0,37183,50000,5268,47614,0,0,0,0,0.00,0.00,0.00,0.00
2016-08-22 03:30:00,0,47769,0,0.00,0,0,0,0,39385,50000,3314,49666,0,0,0,0,0.00,0.00,0.00,0.00
2016-08-22 03:40:00,0,47731,0,0.00,0,0,0,0,43775,50000,2536,49129,0,0,0,0,0.00,0.00,0.00,0.00
2016-08-22 03:50:00,0,48809,0,0.00,0,0,0,0,42361,50000,2265,50000,0,0,0,0,0.00,0.00,0.00,0.00
2016-08-22 04:00:00,0,49146,0,0.00,0,0,0,0,44126,50000,1760,50000,0,0,0,0,0.00,0.00,0.00,0.00
2016-08-22 04:10:00,0,48230,0,0.00,0,0,0,0,43075,50000,2361,50000,0,0,0,0,0.00,0.00,0.00,0.00
2016-08-22 04:20:00,0,49648,0,0.00,0,0,0,0,46482,50000,1055,50000,0,0,0,0,0.00,0.00,0.00,0.00
2016-08-22 04:30:00,0,48414,0,0.00,0,0,0,0,46128,50000,1408,48262,0,0,0,0,0.00,0.00,0.00,0.00
2016-08-22 04:40:00,0,47032,0,0.00,0,0,0,0,39168,50000,4208,49876,0,0,0,0,0.00,0.00,0.00,0.00
2016-08-22 04:50:00,0,47686,0,0.00,0,0,0,0,41571,50000,2917,49220,0,0,0,0,0.00,0.00,0.00,0.00
2016-08-22 05:00:00,0,47130,0,0.00,0,0,0,0,39713,50000,3374,48228,0,0,0,0,0.00,0.00,0.00,0.00
2016-08-22 05:10:00,0,49652,0,0.00,0,0,0,0,48289,50000,669,50000,0,0,0,0,0.00,0.00,0.00,0.00
2016-08-22 05:20:00,0,49466,0,0.00,0,0,0,0,44662,50000,1601,50000,0,0,0,0,0.00,0.00,0.00,0.00
2016-08-22 05:30:00,0,48386,0,0.00,0,0,0,0,40607,50000,3057,50000,0,0,0,0,0.00,0.00,0.00,0.00
2016-08-22 05:40:00,0,49941,0,0.00,0,0,0,0,49513,50000,145,50000,0,0,0,0,0.00,0.00,0.00,0.00
2016-08-22 05:50:00,0,49184,0,0.00,0,0,0,0,44060,50000,1741,49994,0,0,0,0,0.00,0.00,0.00,0.00
2016-08-22 06:00:00,0,48881,0,0.00,0,0,0,0,46662,50000,1299,49732,0,0,0,0,0.00,0.00,0.00,0.00
2016-08-22 06:10:00,0,49757,0,0.00,0,0,0,0,47568,50000,730,50000,0,0,0,0,0.00,0.00,0.00,0.00
2016-08-22 06:20:00,0,50000,0,0.00,0,0,0,0,50000,50000,0,50000,0,0,0,0,0.00,0.00,0.00,0.00
2016-08-22 06:30:00,0,49849,0,0.00,0,0,0,0,48803,50000,361,50000,0,0,0,0,0.00,0.00,0.00,0.00
2016-08-22 06:40:00,0,49700,0,0.00,0,0,0,0,47381,50000,781,50000,0,0,0,0,0.00,0.00,0.00,0.00
2016-08-22 06:50:00,0,49415,0,0.00,0,0,0,0,46671,50000,1002,50000,0,0,0,0,0.00,0.00,0.00,0.00
2016-08-22 07:00:00,0,49774,0,0.00,0,0,0,0,47741,50000,678,50000,0,0,0,0,0.00,0.00,0.00,0.00
2016-08-22 07:10:00,0,49517,0,0.00,0,0,0,0,47484,50000,967,50000,0,0,0,0,0.00,0.00,0.00,0.00
2016-08-22 07:20:00,0,48937,0,0.00,0,0,0,0,45093,50000,1435,49478,0,0,0,0,0.00,0.00,0.00,0.00
2016-08-22 07:30:00,0,49991,0,0.00,0,0,0,0,49914,50000,26,50000,0,0,0,0,0.00,0.00,0.00,0.00
2016-08-22 07:40:00,0,49742,0,0.00,0,0,0,0,48347,50000,541,50000,0,0,0,0,0.00,0.00,0.00,0.00
2016-08-22 07:50:00,0,49995,0,0.00,0,0,0,0,49949,50000,15,50000,0,0,0,0,0.00,0.00,0.00,0.00
2016-08-22 08:00:00,0,49514,0,0.00,0,0,0,0,46372,50000,1110,50000,0,0,0,0,0.00,0.00,0.00,0.00
2016-08-22 08:10:00,0,49795,0,0.00,0,0,0,0,47948,50000,616,50000,0,0,0,0,0.00,0.00,0.00,0.00
2016-08-22 08:20:00,0,49984,0,0.00,0,0,0,0,49845,50000,46,50000,0,0,0,0,0.00,0.00,0.00,0.00
2016-08-22 08:30:00,0,49967,0,0.00,0,0,0,0,49671,50000,99,50000,0,0,0,0,0.00,0.00,0.00,0.00
2016-08-22 08:40:00,0,49756,0,0.00,0,0,0,0,48066,50000,583,50000,0,0,0,0,0.00,0.00,0.00,0.00
2016-08-22 08:50:00,0,50000,0,0.00,0,0,0,0,50000,50000,0,50000,0,0,0,0,0.00,0.00,0.00,0.00
2016-08-22 09:00:00,0,49729,0,0.00,0,0,0,0,47690,50000,690,50000,0,0,0,0,0.00,0.00,0.00,0.00
2016-08-22 09:10:00,0,49356,0,0.00,0,0,0,0,44597,50000,1611,50000,0,0,0,0,0.00,0.00,0.00,0.00
2016-08-22 09:20:00,0,48598,0,0.00,0,0,0,0,45094,50000,1924,49856,0,0,0,0,0.00,0.00,0.00,0.00
2016-08-22 09:30:00,0,49523,0,0.00,0,0,0,0,47585,50000,955,50000,0,0,0,0,0.00,0.00,0.00,0.00
2016-08-22 09:40:00,0,44589,0,0.00,0,0,0,0,17771,50000,9564,49258,0,0,0,0,0.00,0.00,0.00,0.00
2016-08-22 09:50:00,0,29385,0,0.00,0,0,0,0,19151,39623,7309,30706,0,0,0,0,0.00,0.00,0.00,0.00
2016-08-22 10:00:00,0,28037,0,0.00,0,0,0,0,14220,37896,7089,30400,0,0,0,0,0.00,0.00,0.00,0.00
2016-08-22 10:10:00,0,14763,0,0.00,0,0,0,0,5517,36324,10911,8996,0,0,0,0,0.00,0.00,0.00,0.00
2016-08-22 10:20:00,0,15489,10,0.00,0,0,0,0,4783,39127,10757,11109,10,10,0,10,0.00,0.00,0.00,0.00
2016-08-22 10:30:00,0,30610,3,0.00,0,0,0,0,4957,50000,15442,29069,0,10,5,0,0.00,0.00,0.00,0.00
2016-08-22 10:40:00,0,16472,0,0.00,0,0,0,0,5635,37072,9685,12833,0,0,0,0,0.00,0.00,0.00,0.00
2016-08-22 10:50:00,0,43454,0,0.00,0,0,0,0,22362,50000,9714,50000,0,0,0,0,0.00,0.00,0.00,0.00
2016-08-22 11:00:00,0,15964,22,0.13,0,0,0,0,5658,50000,15517,8109,0,61,28,0,0.00,0.85,0.25,0.00
2016-08-22 11:10:00,0,40719,0,0.00,0,0,0,0,13642,50000,13200,49572,0,0,0,0,0.00,0.00,0.00,0.00
2016-08-22 11:20:00,0,50000,0,0.00,0,0,0,0,50000,50000,0,50000,0,0,0,0,0.00,0.00,0.00,0.00
2016-08-22 11:30:00,0,50000,0,0.00,0,0,0,0,50000,50000,0,50000,0,0,0,0,0.00,0.00,0.00,0.00
2016-08-22 11:40:00,0,50000,0,0.00,0,0,0,0,50000,50000,0,50000,0,0,0,0,0.00,0.00,0.00,0.00
2016-08-22 11:50:00,0,49248,0,0.00,0,0,0,0,44610,50000,1672,50000,0,0,0,0,0.00,0.00,0.00,0.00
2016-08-22 12:00:00,0,49972,0,0.00,0,0,0,0,49715,50000,86,50000,0,0,0,0,0.00,0.00,0.00,0.00
2016-08-22 12:10:00,0,50000,0,0.00,0,0,0,0,50000,50000,0,50000,0,0,0,0,0.00,0.00,0.00,0.00
2016-08-22 12:20:00,0,50000,0,0.00,0,0,0,0,50000,50000,0,50000,0,0,0,0,0.00,0.00,0.00,0.00
2016-08-22 12:30:00,0,49842,0,0.00,0,0,0,0,48420,50000,474,50000,0,0,0,0,0.00,0.00,0.00,0.00
2016-08-22 12:40:00,0,50000,0,0.00,0,0,0,0,50000,50000,0,50000,0,0,0,0,0.00,0.00,0.00,0.00
2016-08-22 12:50:00,0,49927,0,0.00,0,0,0,0,49271,50000,219,50000,0,0,0,0,0.00,0.00,0.00,0.00
2016-08-22 13:00:00,0,50000,0,0.00,0,0,0,0,50000,50000,0,50000,0,0,0,0,0.00,0.00,0.00,0.00
2016-08-22 13:10:00,0,50000,0,0.00,0,0,0,0,50000,50000,0,50000,0,0,0,0,0.00,0.00,0.00,0.00
2016-08-22 13:20:00,0,49480,0,0.00,0,0,0,0,47307,50000,1041,50000,0,0,0,0,0.00,0.00,0.00,0.00
2016-08-22 13:30:00,0,50000,0,0.00,0,0,0,0,50000,50000,0,50000,0,0,0,0,0.00,0.00,0.00,0.00
2016-08-22 13:40:00,0,42899,0,0.00,0,0,0,0,21264,50000,11379,50000,0,0,0,0,0.00,0.00,0.00,0.00
2016-08-22 13:50:00,0,49394,0,0.00,0,0,0,0,45601,50000,1281,49848,0,0,0,0,0.00,0.00,0.00,0.00
2016-08-22 14:00:00,0,49884,0,0.00,0,0,0,0,48843,50000,347,50000,0,0,0,0,0.00,0.00,0.00,0.00
2016-08-22 14:10:00,0,50000,0,0.00,0,0,0,0,50000,50000,0,50000,0,0,0,0,0.00,0.00,0.00,0.00
2016-08-22 14:20:00,0,50000,0,0.00,0,0,0,0,50000,50000,0,50000,0,0,0,0,0.00,0.00,0.00,0.00
2016-08-22 14:30:00,0,50000,0,0.00,0,0,0,0,50000,50000,0,50000,0,0,0,0,0.00,0.00,0.00,0.00
2016-08-22 14:40:00,0,50000,0,0.00,0,0,0,0,50000,50000,0,50000,0,0,0,0,0.00,0.00,0.00,0.00
2016-08-22 14:50:00,0,50000,0,0.00,0,0,0,0,50000,50000,0,50000,0,0,0,0,0.00,0.00,0.00,0.00
2016-08-22 15:00:00,0,50000,0,0.00,0,0,0,0,50000,50000,0,50000,0,0,0,0,0.00,0.00,0.00,0.00
2016-08-22 15:10:00,0,50000,0,0.00,0,0,0,0,50000,50000,0,50000,0,0,0,0,0.00,0.00,0.00,0.00
2016-08-22 15:20:00,1,50000,0,0.00,0,2,1,0,50000,50000,0,50000,0,0,0,0,0.00,0.00,0.00,0.00
2016-08-22 15:30:00,2,50000,0,0.00,2,2,0,2,50000,50000,0,50000,0,0,0,0,0.00,0.00,0.00,0.00
2016-08-22 15:40:00,2,50000,0,0.00,0,2,1,2,50000,50000,0,50000,0,0,0,0,0.00,0.00,0.00,0.00
2016-08-22 15:50:00,1,50000,0,0.00,0,2,1,0,50000,50000,0,50000,0,0,0,0,0.00,0.00,0.00,0.00
2016-08-22 16:00:00,0,50000,0,0.00,0,0,0,0,50000,50000,0,50000,0,0,0,0,0.00,0.00,0.00,0.00
2016-08-22 16:10:00,0,50000,0,0.00,0,0,0,0,50000,50000,0,50000,0,0,0,0,0.00,0.00,0.00,0.00
2016-08-22 16:20:00,0,50000,0,0.00,0,0,0,0,50000,50000,0,50000,0,0,0,0,0.00,0.00,0.00,0.00
2016-08-22 16:30:00,0,50000,0,0.00,0,0,0,0,50000,50000,0,50000,0,0,0,0,0.00,0.00,0.00,0.00
2016-08-22 16:40:00,1,50000,0,0.00,0,2,1,0,50000,50000,0,50000,0,0,0,0,0.00,0.00,0.00,0.00
2016-08-22 16:50:00,2,50000,0,0.00,2,2,0,2,50000,50000,0,50000,0,0,0,0,0.00,0.00,0.00,0.00
2016-08-22 17:00:00,2,50000,0,0.00,2,2,0,2,50000,50000,0,50000,0,0,0,0,0.00,0.00,0.00,0.00
2016-08-22 17:10:00,2,50000,0,0.00,2,2,0,2,50000,50000,0,50000,0,0,0,0,0.00,0.00,0.00,0.00
2016-08-22 17:20:00,2,50000,0,0.00,2,2,0,2,50000,50000,0,50000,0,0,0,0,0.00,0.00,0.00,0.00
2016-08-22 17:30:00,2,50000,0,0.00,2,2,0,2,50000,50000,0,50000,0,0,0,0,0.00,0.00,0.00,0.00
2016-08-22 17:40:00,2,50000,0,0.00,2,2,0,2,50000,50000,0,50000,0,0,0,0,0.00,0.00,0.00,0.00
2016-08-22 17:50:00,2,50000,0,0.00,2,2,0,2,50000,50000,0,50000,0,0,0,0,0.00,0.00,0.00,0.00
2016-08-22 18:00:00,2,50000,0,0.00,2,2,0,2,50000,50000,0,50000,0,0,0,0,0.00,0.00,0.00,0.00
2016-08-22 18:10:00,2,50000,0,0.00,2,2,0,2,50000,50000,0,50000,0,0,0,0,0.00,0.00,0.00,0.00
2016-08-22 18:20:00,2,50000,0,0.00,2,2,0,2,50000,50000,0,50000,0,0,0,0,0.00,0.00,0.00,0.00
2016-08-22 18:30:00,2,50000,0,0.00,2,2,0,2,50000,50000,0,50000,0,0,0,0,0.00,0.00,0.00,0.00
2016-08-22 18:40:00,2,50000,0,0.00,2,2,0,2,50000,50000,0,50000,0,0,0,0,0.00,0.00,0.00,0.00
2016-08-22 18:50:00,2,49898,0,0.00,2,2,0,2,48980,50000,306,50000,0,0,0,0,0.00,0.00,0.00,0.00
2016-08-22 19:00:00,2,50000,0,0.00,2,2,0,2,50000,50000,0,50000,0,0,0,0,0.00,0.00,0.00,0.00
2016-08-22 19:10:00,2,50000,0,0.00,2,2,0,2,50000,50000,0,50000,0,0,0,0,0.00,0.00,0.00,0.00
2016-08-22 19:20:00,2,49989,0,0.00,2,2,0,2,49893,50000,32,50000,0,0,0,0,0.00,0.00,0.00,0.00
2016-08-22 19:30:00,2,50000,0,0.00,2,2,0,2,50000,50000,0,50000,0,0,0,0,0.00,0.00,0.00,0.00
2016-08-22 19:40:00,2,50000,0,0.00,2,2,0,2,50000,50000,0,50000,0,0,0,0,0.00,0.00,0.00,0.00
2016-08-22 19:50:00,2,50000,0,0.00,2,2,0,2,50000,50000,0,50000,0,0,0,0,0.00,0.00,0.00,0.00
2016-08-22 20:00:00,2,50000,0,0.00,2,2,0,2,50000,50000,0,50000,0,0,0,0,0.00,0.00,0.00,0.00
2016-08-22 20:10:00,2,50000,0,0.00,2,2,0,2,50000,50000,0,50000,0,0,0,0,0.00,0.00,0.00,0.00
2016-08-22 20:20:00,2,50000,0,0.00,2,2,0,2,50000,50000,0,50000,0,0,0,0,0.00,0.00,0.00,0.00
2016-08-22 20:30:00,2,50000,0,0.00,2,2,0,2,50000,50000,0,50000,0,0,0,0,0.00,0.00,0.00,0.00
2016-08-22 20:40:00,2,50000,0,0.00,2,2,0,2,50000,50000,0,50000,0,0,0,0,0.00,0.00,0.00,0.00
2016-08-22 20:50:00,2,49888,0,0.00,2,2,0,2,48878,50000,337,50000,0,0,0,0,0.00,0.00,0.00,0.00
2016-08-22 21:00:00,2,49950,0,0.00,2,2,0,2,49495,50000,152,50000,0,0,0,0,0.00,0.00,0.00,0.00
2016-08-22 21:10:00,2,50000,0,0.00,2,2,0,2,50000,50000,0,50000,0,0,0,0,0.00,0.00,0.00,0.00
2016-08-22 21:20:00,2,49849,0,0.00,2,2,0,2,48491,50000,453,50000,0,0,0,0,0.00,0.00,0.00,0.00
2016-08-22 21:30:00,2,50000,0,0.00,2,2,0,2,50000,50000,0,50000,0,0,0,0,0.00,0.00,0.00,0.00
2016-08-22 21:40:00,2,49813,0,0.00,2,2,0,2,48128,50000,562,50000,0,0,0,0,0.00,0.00,0.00,0.00
2016-08-22 21:50:00,2,49893,0,0.00,2,2,0,2,48929,50000,321,50000,0,0,0,0,0.00,0.00,0.00,0.00
2016-08-22 22:00:00,2,50000,0,0.00,2,2,0,2,50000,50000,0,50000,0,0,0,0,0.00,0.00,0.00,0.00
2016-08-22 22:10:00,2,49996,0,0.00,2,2,0,2,49961,50000,12,50000,0,0,0,0,0.00,0.00,0.00,0.00
2016-08-22 22:20:00,2,49990,0,0.00,2,2,0,2,49895,50000,32,50000,0,0,0,0,0.00,0.00,0.00,0.00
2016-08-22 22:30:00,2,50000,0,0.00,2,2,0,2,50000,50000,0,50000,0,0,0,0,0.00,0.00,0.00,0.00
2016-08-22 22:40:00,2,49595,0,0.00,2,2,0,2,46205,50000,1133,50000,0,0,0,0,0.00,0.00,0.00,0.00
2016-08-22 22:50:00,2,50000,0,0.00,2,2,0,2,50000,50000,0,50000,0,0,0,0,0.00,0.00,0.00,0.00
2016-08-22 23:00:00,2,49681,0,0.00,2,2,0,2,47327,50000,800,50000,0,0,0,0,0.00,0.00,0.00,0.00
2016-08-22 23:10:00,2,50000,0,0.00,2,2,0,2,50000,50000,0,50000,0,0,0,0,0.00,0.00,0.00,0.00
2016-08-22 23:20:00,2,50000,0,0.00,2,2,0,2,50000,50000,0,50000,0,0,0,0,0.00,0.00,0.00,0.00
2016-08-22 23:30:00,2,49775,0,0.00,2,2,0,2,47748,50000,676,50000,0,0,0,0,0.00,0.00,0.00,0.00
2016-08-22 23:40:00,2,49730,0,0.00,2,2,0,2,48332,50000,559,50000,0,0,0,0,0.00,0.00,0.00,0.00
2016-08-22 23:50:00,2,49342,0,0.00,2,2,0,2,46347,50000,1156,50000,0,0,0,0,0.00,0.00,0.00,0.00
